Eagle River, WI (54521)

7:03 PM CST on February 07, 2016 (GMT -0600)
Eagle River | | Change Station
CLOSE
Current Station
Personal Weather Station
Location: Eagle River, WI
Elevation: 1637 ft
Nearby Weather Stations
Active Advisory: Winter Weather Advisory

Elev 1637 ft 45.92 °N, 89.27 °W | Updated 5 seconds ago

Light Snow
Light Snow
32.9 °F
Feels Like 33 °F
N
0.0
Wind Variable Wind from West
Gusts 0.0 mph

Today
High -- | Low -- °F
--% Chance of Precip.
Yesterday
High -- | Low -- °F
Precip. -- in
Pressure 29.51 in
Visibility 10.0 miles
Clouds Scattered Clouds 1600 ft
Mostly Cloudy 2600 ft
Overcast 4300 ft
Windchill 33 °F
Dew Point 29 °F
Humidity 85%
Rainfall 0.00 in
Snow Depth Not available.
7:11 AM 5:10 PM
Waning Crescent, 0% visible
METAR KEGV 080050Z AUTO 24007KT 10SM -SN SCT016 BKN026 OVC043 00/00 A2951 RMK AO2 T00001005
Pressure 29.51 in
Visibility 10.0 miles
Clouds Scattered Clouds 1600 ft
Mostly Cloudy 2600 ft
Overcast 4300 ft
Windchill 33 °F
Dew Point 29 °F
Humidity 85%
Rainfall 0.00 in
Snow Depth Not available.
7:11 AM 5:10 PM
Waning Crescent, 0% visible
METAR KEGV 080050Z AUTO 24007KT 10SM -SN SCT016 BKN026 OVC043 00/00 A2951 RMK AO2 T00001005

10-Day Weather Forecast

Almanac

Astronomy

Feb. 07, 2016 Rise Set
Actual Time
Civil Twilight
Nautical Twilight
Astronomical Twilight
Moon
Length of Visible Light
Length of Day
Tomorrow will be .
, % of the Moon is Illuminated

Today's Extremes

State Highs State Lows

Community

WunderPhotos

Upload Photos

1,891,340 photos uploaded!

WunderBlog® & News

Nearby

Air Quality

  Air Quality AQ Index Pollutant
Not available.

Snow Depth

Station Depth Elevation

Earthquake Activity

City Distance Mag. Time & Date
Minimum magnitude displayed is 2.5.

Coastal Water Temperatures

Place Temperature

Stations

Nearby Weather Stations

Station Location Temp. Windchill Dew Point Humidity Wind Precip. Elev Updated Type
                   

Watches & Warnings

Winter Weather Advisory
Issued: 4:21 PM CST Feb. 7, 2016 – National Weather Service

... Winter Weather Advisory remains in effect until 6 PM CST
Monday...

A Winter Weather Advisory remains in effect until 6 PM CST
Monday.

* Expect snow to increase this evening then diminish around 6 PM
Monday.

* The heaviest snowfall rates will occur between midnight and 6
am Monday.

* Total snow accumulations of 2 to 4 inches are expected... with
higher totals possible in the northwest corner of Vilas County.

* Expect reduced visibilities at times... and slippery
roads... including during the Monday morning commute.

Precautionary/preparedness actions...

A Winter Weather Advisory for snow means periods of snow will
cause primarily travel difficulties. Be prepared for snow covered
roads and limited visibilities... and use extra caution while
driving. The latest Wisconsin Road conditions can be obtained by
calling 511.